Tracking 29594 objects as of 20-Sep-2024
HD Live streaming from Space Station
objects crossing your sky now

DELTA 1 DEB

Track DELTA 1 DEB now!
10-day predictions


NORAD ID: 10757
Int'l Code: 1976-077BE
Perigee: 1,489.9 km
Apogee: 1,883.4 km
Inclination: 102.0 °
Period: 120.0 minutes
Semi major axis: 8057 km
RCS: 0.0976 m2 (small)
Launch date: July 29, 1976
Source: United States (US)
Launch site: AIR FORCE WESTERN TEST RANGE (AFWTR)

Note: This is SATELLITE DEBRIS
Your satellite tracking list
Your tracking list is empty




NASA's NSSDC Master Catalog

Two Line Element Set (TLE):
1 10757U 76077BE  24263.52634432  .00001249  00000-0  14565-1 0  9991
2 10757 101.9612 356.4345 0244190  65.3478 309.8541 12.00294005107411
Source of the keplerian elements: AFSPC